EHI
0 0 0 0 0 0 0 0 0 0 0 0 0 0 0 2 5 9 14 21 27 21 11 8 12 16 17 16 15 14 12 13 20 31 42 50 48 41 34 22 8 1 1 1
0 0 0 0 0 0 0 0 0 0 0 0 0 0 0 2 6 10 14 20 23 20 13 10 12 17 21 23 22 18 16 15 20 33 49 55 49 39 31 21 10 4 3 2
0 0 0 0 0 0 0 0 0 0 0 0 0 0 0 1 3 5 9 15 20 24 25 19 17 21 24 24 22 21 22 23 25 38 53 60 53 41 32 26 18 10 6 4
0 0 0 0 0 0 0 0 0 0 0 0 0 0 0 0 0 0 3 8 15 25 31 30 28 30 32 30 28 30 35 38 38 41 48 52 47 38 34 34 29 20 12 9
0 0 0 0 0 0 0 0 0 0 0 0 0 0 0 0 0 0 1 3 7 14 21 25 27 30 33 37 40 43 44 45 42 35 32 31 27 24 27 31 31 27 21 16
0 0 0 0 0 0 0 0 0 0 0 0 0 0 0 0 0 0 0 0 2 4 7 9 12 15 18 25 34 36 35 33 27 19 14 12 11 11 14 19 24 26 24 20
0 0 0 0 0 0 0 0 0 0 0 0 0 0 0 0 0 0 0 0 0 0 1 1 1 2 4 8 14 16 16 14 10 5 3 2 3 4 6 9 13 17 17 14
0 0 0 0 0 0 0 0 0 0 0 0 0 0 0 0 0 0 0 0 0 0 0 1 1 0 0 1 2 3 3 3 1 0 0 0 0 1 3 3 5 7 7 4
0 0 0 0 0 0 0 0 0 0 0 0 0 0 0 0 0 0 0 0 0 0 0 1 1 0 0 0 0 0 0 0 0 0 0 0 0 0 1 1 1 2 1 1
0 0 0 0 0 0 0 0 0 0 0 0 0 0 0 0 0 0 0 0 0 0 0 1 1 0 0 0 0 0 0 0 0 0 0 0 0 0 0 0 0 0 0 0
0 0 0 0 0 0 0 0 0 0 0 0 0 0 0 0 0 0 0 0 0 0 0 0 0 0 0 0 0 0 0 0 0 0 0 0 0 0 0 0 0 0 0 0
0 0 0 0 0 0 0 0 0 0 0 0 0 0 0 0 0 0 0 0 0 0 0 0 0 0 0 0 0 0 0 0 0 0 0 0 0 0 0 0 0 0 0 0
0 0 0 0 0 0 0 0 0 0 0 0 0 0 0 0 0 0 0 0 0 0 0 0 0 0 0 0 0 0 0 0 0 0 0 0 0 0 0 0 0 0 0 0
0 0 0 0 0 0 0 0 0 0 0 0 0 0 0 0 0 0 0 0 0 0 0 0 0 0 0 0 0 0 0 0 0 0 0 0 0 0 0 0 0 0 0 0
0 0 0 0 0 0 0 0 0 0 0 0 0 0 0 0 0 0 0 0 0 0 0 0 0 0 0 0 0 0 0 0 0 0 0 0 0 0 0 0 0 0 0 0
0 0 0 0 0 0 0 0 0 0 0 0 0 0 0 0 0 0 0 0 0 0 0 0 0 0 0 0 0 0 0 0 0 0 0 0 0 0 0 0 0 0 0 0
0 0 0 0 0 0 0 0 0 0 0 0 0 0 0 0 0 0 0 0 0 0 0 0 0 0 0 0 0 0 0 0 0 0 0 0 0 0 0 0 0 0 0 0
0 0 0 0 0 0 0 0 0 0 0 0 0 0 0 0 0 0 0 0 0 0 0 0 0 0 0 0 0 0 0 0 0 0 0 0 0 0 0 0 0 0 0 0
0 0 0 0 0 0 0 0 0 0 0 0 0 0 0 0 0 0 0 0 0 0 0 0 0 0 0 0 0 0 0 0 0 0 0 0 0 0 0 0 0 0 0 0
0 0 0 0 0 0 0 0 0 0 0 0 0 0 0 0 0 0 0 0 0 0 0 0 0 0 0 0 0 0 0 0 0 0 0 0 0 0 0 0 0 0 0 0
0 0 0 0 0 0 0 0 0 0 0 0 0 0 0 0 0 0 0 0 0 0 0 0 0 0 0 0 0 0 0 0 0 0 0 0 0 0 0 0 0 0 0 0
0 0 0 0 0 0 0 0 0 0 0 0 0 0 0 0 0 0 0 0 0 0 0 0 0 0 0 0 0 0 0 0 0 0 0 0 0 0 0 0 0 0 0 0
0 0 0 0 0 0 0 0 0 0 0 0 0 0 0 0 0 0 0 0 0 0 0 0 0 0 0 0 0 0 0 0 0 0 0 0 0 0 0 0 0 0 0 0
0 0 0 0 0 0 0 0 0 0 0 0 0 0 0 0 0 0 0 0 0 0 0 0 0 0 0 0 0 0 0 0 0 0 0 0 0 0 0 0 0 0 0 0
0 0 0 0 0 0 0 0 0 0 0 0 0 0 0 0 0 0 0 0 0 0 0 0 0 0 0 0 0 0 0 0 0 0 0 0 0 0 0 0 0 0 0 0
0 0 0 0 0 0 0 0 0 0 0 0 0 0 0 0 0 0 0 0 0 0 0 0 0 0 0 0 0 0 0 0 0 0 0 0 0 0 0 0 0 0 0 0
Wind_Speed
4 8 8 6 8 8 7 10 11 7 3 8 10 11 7 5 3 2 3 3 5 5 6 7 8 8 9 10 11 12 12 12 10 8 8 7 6 5 4 5 8 10 10 10
7 8 2 4 6 8 9 11 11 7 4 7 7 7 2 2 4 5 4 3 4 6 6 7 7 7 8 9 10 11 12 12 11 9 7 5 4 3 3 4 7 10 10 10
7 2 2 7 9 11 11 12 11 10 7 7 9 12 9 6 5 6 6 6 4 2 2 4 6 6 6 7 7 7 8 8 9 9 6 5 4 3 4 6 6 7 8 10
4 1 4 7 7 8 9 5 7 8 11 12 11 13 12 10 9 7 7 7 7 6 5 4 2 1 2 2 2 2 2 2 2 3 5 7 8 9 10 9 8 6 4 6
4 3 5 8 5 7 4 2 7 9 12 15 12 13 12 10 11 9 8 8 7 7 7 7 7 6 6 4 3 3 4 4 4 2 2 4 7 8 8 9 9 7 4 2
4 3 5 5 4 7 5 7 8 10 12 18 18 16 14 9 7 7 8 8 8 7 8 8 8 8 7 7 6 5 5 5 5 4 4 3 5 6 7 9 8 6 3 1
7 9 7 7 11 10 12 12 10 11 14 16 13 12 10 8 7 5 6 7 8 8 8 8 8 7 6 5 5 4 4 4 4 3 3 3 3 3 3 4 5 5 3 2
7 8 5 6 11 11 14 16 13 11 12 9 6 12 4 7 7 7 7 7 8 9 9 9 8 7 6 5 4 3 3 3 3 3 2 2 2 2 2 1 1 1 2 2
6 4 3 3 5 8 8 10 7 8 10 10 10 7 5 6 6 7 7 8 8 8 8 8 8 8 8 7 5 4 4 4 4 4 4 4 4 4 4 3 3 3 3 2
7 9 5 5 6 5 7 5 4 4 6 9 10 10 6 10 9 7 6 6 6 6 7 7 7 8 7 7 7 6 6 6 6 6 5 5 5 5 5 5 6 5 4 3
7 9 6 7 8 8 8 7 6 5 6 6 6 3 4 1 7 8 6 5 5 5 6 6 6 6 7 7 7 6 6 6 6 6 6 6 6 6 6 6 6 5 5 4
4 8 10 7 1 4 7 9 8 8 9 8 8 3 6 4 5 6 7 5 4 4 5 6 6 6 7 7 6 6 6 6 6 5 5 5 5 6 6 7 6 5 5 4
1 6 10 9 5 5 7 9 9 9 9 9 11 5 7 6 6 6 5 3 2 2 4 5 5 5 5 6 5 5 5 5 5 5 4 5 5 6 6 6 6 5 5 4
4 7 10 13 11 10 11 12 11 10 10 12 13 8 9 8 7 5 3 2 1 2 2 3 3 3 4 4 4 4 4 4 3 3 3 3 4 4 5 6 5 5 5 5
6 12 12 13 14 14 16 16 15 14 14 15 14 10 3 9 7 6 3 1 1 2 2 2 2 3 3 3 3 3 3 3 2 1 2 3 3 3 4 5 5 5 4 5
5 9 11 12 12 12 15 15 14 13 12 13 12 2 7 8 7 6 3 2 3 3 2 1 1 2 3 2 2 1 2 3 3 3 4 3 2 3 3 4 4 4 4 5
6 7 10 11 9 11 10 8 8 8 6 7 7 1 10 8 7 6 6 6 5 4 3 2 2 3 3 2 1 1 3 4 4 4 4 3 3 3 3 3 3 4 4 4
7 8 7 9 9 7 2 2 4 5 4 2 0 6 9 8 7 6 7 7 5 3 2 1 2 3 3 2 1 3 5 4 3 3 3 3 3 4 4 4 4 4 3 3
4 7 8 7 8 9 1 2 3 5 4 2 2 6 8 7 7 8 8 6 3 1 1 2 2 3 3 2 3 5 6 5 4 3 2 3 3 3 2 2 2 2 2 3
5 6 8 8 9 7 3 4 0 5 4 4 4 7 8 9 7 5 9 6 4 2 1 1 2 3 2 0 2 5 5 5 3 3 2 2 2 1 1 0 1 1 1 2
6 7 7 9 9 6 5 3 4 6 4 3 4 7 8 8 2 7 7 5 3 2 2 2 1 2 2 2 2 4 4 3 4 4 3 3 2 2 2 1 1 0 1 2
7 5 5 5 6 1 6 4 5 5 4 2 5 7 7 4 4 5 4 3 2 2 2 2 2 2 3 2 2 3 3 4 4 5 4 3 3 3 3 3 2 2 2 1
6 5 4 5 4 3 3 6 2 3 4 3 7 7 7 6 6 4 3 2 2 1 2 2 3 4 4 3 3 4 4 4 4 4 3 3 3 4 5 5 4 3 3 3
6 5 7 8 7 6 7 8 7 6 4 5 7 8 8 7 6 5 4 4 4 3 3 2 3 4 4 4 5 5 5 4 3 3 3 3 3 3 4 4 4 4 5 4
8 6 9 12 11 8 9 11 11 9 8 8 9 9 9 7 7 6 5 5 4 4 4 3 3 3 5 5 5 6 6 5 4 3 4 4 4 4 3 3 3 3 2 2
13 12 12 12 10 9 7 8 13 13 12 11 11 11 10 9 8 8 6 6 6 5 5 4 5 5 5 6 6 6 5 4 2 3 4 4 4 4 4 5 5 3 2 2
Wind_Direction
196 235 232 234 241 283 264 238 221 201 155 224 225 237 258 326 340 51 76 108 143 167 178 198 210 220 220 216 219 221 224 223 226 230 231 233 236 244 259 273 275 271 266 262
212 224 258 280 248 240 235 234 228 194 193 237 220 226 218 9 44 48 65 91 136 164 177 186 192 205 214 217 221 225 226 230 230 230 233 235 233 235 252 278 286 283 277 269
250 77 242 222 210 218 222 231 229 224 202 229 248 236 200 154 135 106 87 78 69 74 146 171 188 200 209 214 222 231 236 238 240 238 230 215 204 206 215 233 242 261 280 281
233 196 235 213 206 227 216 230 253 247 243 239 230 258 209 165 161 128 95 81 70 56 53 48 49 165 210 230 246 262 271 271 267 246 239 234 231 229 224 217 217 218 236 274
190 199 232 229 217 244 265 181 244 252 256 261 241 251 249 173 187 137 94 76 68 58 52 43 34 36 33 26 39 57 60 57 52 25 325 266 256 251 240 225 219 214 206 243
246 224 261 267 243 248 225 219 236 246 252 248 246 249 256 214 191 129 93 78 70 66 63 55 49 48 44 39 45 57 70 64 54 42 25 336 301 280 252 229 214 206 191 162
228 225 222 240 243 222 221 230 234 229 225 239 234 242 250 83 77 76 84 78 74 71 66 58 50 45 48 50 45 48 63 65 54 42 26 355 337 322 285 242 215 195 173 149
268 239 197 221 246 247 228 236 243 256 255 248 192 238 215 101 104 107 102 92 80 72 63 55 47 39 36 43 48 60 72 76 65 56 40 14 7 12 18 13 86 125 113 117
271 256 141 230 253 257 243 246 263 272 281 274 243 225 143 151 157 137 117 98 79 70 62 52 43 35 31 34 42 52 78 81 68 54 40 35 34 41 48 60 74 80 85 99
278 275 210 193 215 224 259 220 199 226 247 250 257 248 235 182 184 159 125 99 82 74 68 59 50 40 36 35 43 54 66 70 61 51 36 38 40 47 50 56 61 64 72 73
262 271 241 208 227 225 206 216 224 224 240 258 267 258 38 250 183 163 133 102 78 63 57 49 47 44 44 46 47 50 58 60 56 49 46 44 51 61 67 67 67 68 64 61
252 279 279 254 219 299 265 252 239 244 248 252 276 281 78 80 122 140 125 104 73 48 46 39 34 35 38 41 46 50 48 46 43 46 56 61 64 70 77 76 70 69 67 57
252 271 279 261 219 219 248 250 254 257 266 261 260 257 116 125 123 119 115 101 68 24 24 31 31 28 29 30 33 47 52 47 35 34 53 71 80 83 77 72 67 64 63 57
279 278 285 290 298 302 292 287 276 263 259 263 263 268 162 167 154 131 98 49 358 337 349 10 26 28 28 25 18 22 35 44 49 45 51 73 81 85 86 79 73 65 56 52
277 282 285 282 280 278 278 278 281 275 270 275 287 306 173 165 151 131 106 53 297 284 297 344 5 16 16 22 22 27 31 26 34 77 80 70 82 96 99 93 86 74 56 53
288 295 296 287 282 276 272 268 270 275 283 287 290 309 100 123 134 139 152 203 243 256 253 265 334 6 13 5 7 44 77 65 60 65 70 67 79 104 114 111 105 95 72 55
286 293 297 297 313 289 275 276 273 274 281 297 303 138 149 158 168 172 182 204 224 238 256 286 346 358 349 340 325 134 109 91 83 83 77 65 62 64 68 85 89 80 69 62
284 287 286 296 306 284 13 14 305 286 276 286 18 142 170 174 180 190 198 206 206 212 234 277 346 352 337 311 229 161 147 137 124 107 85 67 63 63 52 48 47 42 40 44
261 274 288 293 297 296 204 194 259 283 282 202 197 162 171 169 186 200 201 211 211 192 315 336 345 344 332 287 208 168 161 154 141 118 92 70 61 69 66 47 13 1 9 29
205 240 268 283 295 299 40 95 211 278 262 136 181 176 174 189 228 165 159 178 177 191 231 296 332 350 358 33 189 171 166 160 139 105 85 58 41 39 2 265 255 274 354 9
248 246 261 278 281 291 84 131 212 262 45 108 195 184 188 209 352 97 141 159 165 183 206 240 281 23 45 71 152 163 158 128 98 93 86 66 41 11 352 322 262 179 99 23
283 277 260 271 275 335 116 202 252 350 25 257 200 185 187 175 136 141 150 157 176 197 188 209 205 112 105 107 130 136 115 91 91 90 87 77 54 28 35 33 23 39 63 58
244 279 304 292 308 31 227 246 282 307 282 224 191 180 176 173 168 157 147 141 136 143 160 189 171 138 128 131 144 134 110 102 106 102 97 92 78 55 46 46 40 48 52 45
221 217 255 261 262 246 228 226 223 221 230 199 188 181 182 180 167 157 143 132 124 120 134 154 150 144 130 122 124 131 137 136 139 137 134 126 110 89 69 60 51 49 45 43
279 220 247 256 265 261 234 224 215 202 200 191 190 189 189 183 174 167 158 143 127 117 114 121 127 129 123 132 140 146 149 157 165 167 163 155 143 131 117 102 79 70 74 50
263 250 249 262 266 252 250 218 207 200 199 196 194 195 196 193 185 178 169 157 150 140 132 129 126 127 128 137 143 147 159 174 191 181 159 156 158 151 151 146 138 99 72 123